Location: Newark
(44.2886°N, 4.8431°E)
Time: 15:21:55
(UTC+00:00)

ZACube-1 - Pass Details

Date: 27 November 2020
Orbit: 584 x 665 km, 97.6° (Epoch: 14 January)

Event Time Altitude Azimuth Distance (km) Brightness Sun altitude
Rises 04:19:04 0° 23° (NNE) 2,822 ? -26.8°
Reaches altitude 10° 04:21:27 10° 34° (NE) 1,919 ? -26.4°
Maximum altitude 04:25:06 29° 96° (E) 1,088 ? -25.7°
Drops below altitude 10° 04:28:46 10° 157° (SSE) 1,928 ? -25.1°
Sets 04:31:10 0° 169° (SSE) 2,836 ? -24.7°
